Weather History for KBGM - December, 2012

Change the Weather History Date:

Wednesday, December 5, 2012

  Actual Average Record
Temperature  
Mean Temperature 36 °F 31 °F  
Max Temperature 46 °F 37 °F 64 °F (1982)
Min Temperature 25 °F 25 °F 5 °F (1971)
Degree Days  
Heating Degree Days 29 34  
Month to date heating degree days 109 167  
Since 1 July heating degree days 1642 1742  
Cooling Degree Days 0 0  
Month to date cooling degree days 0 0  
Year to date cooling degree days 548 381  
Moisture  
Dew Point 28 °F    
Average Humidity 77    
Maximum Humidity 93    
Minimum Humidity 61    
Precipitation  
Precipitation 0.19 in 0.10 in 1.52 in (1973)
Month to date precipitation 0.45 0.52  
Year to date precipitation 34.59 36.99  
Snow  
Snow 0.20 in 0.50 in 7.90 in (1977)
Month to date snowfall 0.2 2.3  
Since 1 July snowfall 4.8 9.1  
Snow Depth 0.00 in    
Sea Level Pressure  
Sea Level Pressure 30.11 in    
Wind  
Wind Speed 11 mph (NW)    
Max Wind Speed 21 mph    
Max Gust Speed 29 mph    
Visibility 8 miles    
Events Fog , Rain , Snow    
T = Trace of Precipitation, MM = Missing Value Source: NWS Daily Summary

Daily Weather History Graph

Daily Weather History Graph

Search for Another Location

Airport or City:

Trip Planner

Search our weather history database for the weather conditions in past years. The results will help you decide how hot, cold, wet, or windy it might be!

Date:

Astronomy

Dec. 05, 2012 Rise Set
Actual Time 7:17 AM EST 4:31 PM EST
Civil Twilight 6:46 AM EST 5:03 PM EST
Nautical Twilight 6:10 AM EST 5:38 PM EST
Astronomical Twilight 5:37 AM EST 6:12 PM EST
Moon 11:24 PM EST (12/5) 11:35 AM EST (12/5)
Length of Visible Light 10h 17m
Length of Day
9h 14m
Waning Gibbous, 60% of the Moon is Illuminated
Dec 5
Waning Gibbous
Dec 6
Last Quarter
Dec 13
New
Dec 20
First Quarter
Dec 28
Full

Hourly Weather History & Observations

Time (EST) Temp. Windchill Dew Point Humidity Pressure Visibility Wind Dir Wind Speed Gust Speed Precip Events Conditions
12:33 AM 44.6 °F 39.7 °F 42.8 °F 93% 29.96 in 5.0 mi NW 9.2 mph 16.1 mph 0.03 in Rain Rain
12:39 AM 44.6 °F 40.7 °F 42.8 °F 93% 29.96 in 5.0 mi NW 6.9 mph - 0.04 in Rain Rain
12:53 AM 44.1 °F 40.8 °F 42.1 °F 93% 29.97 in 8.0 mi WNW 5.8 mph - 0.05 in Rain Light Rain
1:06 AM 44.6 °F 43.1 °F 42.8 °F 93% 29.96 in 7.0 mi WNW 3.5 mph - 0.01 in Rain Light Rain
1:16 AM 44.6 °F 43.1 °F 42.8 °F 93% 29.96 in 5.0 mi WNW 3.5 mph - 0.03 in Rain Rain
1:53 AM 44.1 °F 41.5 °F 43.0 °F 96% 29.98 in 9.0 mi WNW 4.6 mph - 0.09 in Rain Light Rain
2:26 AM 42.8 °F 38.6 °F 37.4 °F 81% 29.97 in 9.0 mi West 6.9 mph - 0.03 in Rain Light Rain
2:53 AM 42.1 °F 39.2 °F 37.9 °F 85% 29.98 in 10.0 mi West 4.6 mph - 0.03 in   Scattered Clouds
3:49 AM 42.8 °F 38.6 °F 39.2 °F 87% 29.97 in 10.0 mi West 6.9 mph - N/A   Mostly Cloudy
3:53 AM 42.1 °F 37.7 °F 39.0 °F 89% 29.98 in 10.0 mi West 6.9 mph - N/A   Mostly Cloudy
4:53 AM 41.0 °F 34.7 °F 36.0 °F 82% 29.99 in 10.0 mi WNW 10.4 mph - N/A   Overcast
5:53 AM 39.9 °F 33.4 °F 35.1 °F 83% 30.01 in 10.0 mi WNW 10.4 mph - N/A   Overcast
6:23 AM 41.0 °F 33.9 °F 33.8 °F 76% 30.00 in 10.0 mi WNW 12.7 mph - N/A   Scattered Clouds
6:53 AM 39.9 °F 33.4 °F 33.1 °F 77% 30.02 in 10.0 mi West 10.4 mph - N/A   Mostly Cloudy
7:53 AM 39.0 °F 31.8 °F 33.1 °F 79% 30.04 in 10.0 mi West 11.5 mph - N/A   Overcast
9:53 AM 39.0 °F 30.3 °F 30.0 °F 70% 30.07 in 10.0 mi NW 16.1 mph 21.9 mph N/A   Overcast
10:43 AM 35.6 °F 27.5 °F 30.2 °F 81% 30.06 in 10.0 mi NNW 11.5 mph 23.0 mph N/A   Overcast
10:53 AM 35.1 °F 26.9 °F 30.0 °F 82% 30.10 in 10.0 mi NNW 11.5 mph 18.4 mph 0.00 in   Overcast
11:25 AM 35.6 °F 25.9 °F 26.6 °F 70% 30.06 in 10.0 mi NW 16.1 mph 25.3 mph 0.00 in   Overcast
11:53 AM 35.1 °F 25.5 °F 26.1 °F 70% 30.11 in 10.0 mi NNW 15.0 mph 27.6 mph 0.00 in   Mostly Cloudy
12:53 PM 34.0 °F 24.2 °F 21.9 °F 61% 30.12 in 10.0 mi WNW 15.0 mph 27.6 mph N/A   Overcast
1:30 PM 32.0 °F 23.6 °F 21.2 °F 64% 30.09 in 10.0 mi NW 10.4 mph 26.5 mph N/A   Overcast
1:51 PM 32.0 °F 21.6 °F 24.8 °F 75% 30.09 in 2.5 mi NW 15.0 mph 24.2 mph 0.00 in Snow Light Snow
1:53 PM 32.0 °F 22.1 °F 24.1 °F 73% 30.14 in 2.5 mi WNW 13.8 mph 24.2 mph 0.00 in Snow Light Snow
2:45 PM 30.2 °F 19.8 °F 23.0 °F 75% 30.11 in 8.0 mi NW 13.8 mph 23.0 mph 0.00 in Snow Light Snow
2:53 PM 30.9 °F 21.2 °F 23.0 °F 72% 30.15 in 10.0 mi WNW 12.7 mph 23.0 mph 0.00 in   Overcast
3:07 PM 30.2 °F 19.3 °F 24.8 °F 80% 30.12 in 7.0 mi WNW 15.0 mph 21.9 mph 0.00 in Snow Light Snow
3:30 PM 30.2 °F 20.8 °F 23.0 °F 75% 30.13 in 10.0 mi NW 11.5 mph 21.9 mph 0.00 in   Overcast
3:53 PM 30.0 °F 20.5 °F 21.0 °F 69% 30.18 in 10.0 mi NW 11.5 mph 23.0 mph 0.00 in   Overcast
4:11 PM 30.2 °F 20.2 °F 23.0 °F 75% 30.15 in 2.0 mi NNW 12.7 mph - 0.00 in Snow Light Snow
4:13 PM 30.2 °F 18.9 °F 23.0 °F 75% 30.15 in 1.0 mi NNW 16.1 mph 21.9 mph 0.00 in Snow Light Snow
4:21 PM 28.4 °F 19.1 °F 24.8 °F 86% 30.15 in 0.5 mi NW 10.4 mph 21.9 mph 0.01 in Fog , Snow Snow
4:33 PM 28.4 °F 17.0 °F 24.8 °F 86% 30.15 in 1.5 mi NW 15.0 mph 18.4 mph 0.01 in Snow Light Snow
4:39 PM 28.4 °F 20.4 °F 24.8 °F 86% 30.15 in 5.0 mi NW 8.1 mph 20.7 mph 0.01 in Snow Light Snow
4:53 PM 28.0 °F 19.3 °F 24.1 °F 85% 30.21 in 3.0 mi NW 9.2 mph - 0.01 in Snow Light Snow
4:55 PM 28.4 °F 19.1 °F 24.8 °F 86% 30.16 in 2.0 mi NNW 10.4 mph - 0.00 in Snow Light Snow
4:57 PM 28.4 °F 18.0 °F 24.8 °F 86% 30.16 in 1.8 mi NNW 12.7 mph - 0.00 in Snow Light Snow
5:12 PM 26.6 °F 15.2 °F 23.0 °F 86% 30.17 in 2.0 mi NNW 13.8 mph 21.9 mph 0.01 in Snow Light Snow
5:21 PM 28.4 °F 17.5 °F 21.2 °F 74% 30.17 in 7.0 mi NNW 13.8 mph 23.0 mph 0.01 in Snow Light Snow
5:53 PM 27.0 °F 15.6 °F 18.0 °F 69% 30.23 in 10.0 mi NW 13.8 mph 25.3 mph 0.01 in   Mostly Cloudy
6:53 PM 27.0 °F 18.0 °F 16.0 °F 63% 30.26 in 10.0 mi NNW 9.2 mph 20.7 mph N/A   Overcast
7:19 PM 26.6 °F 18.2 °F 17.6 °F 69% 30.21 in 10.0 mi NNW 8.1 mph - N/A   Overcast
7:53 PM 27.0 °F 18.0 °F 17.1 °F 66% 30.27 in 10.0 mi NW 9.2 mph 18.4 mph N/A   Overcast
8:53 PM 26.1 °F 16.2 °F 17.1 °F 69% 30.28 in 10.0 mi NNW 10.4 mph 20.7 mph N/A   Overcast
9:53 PM 26.1 °F 15.6 °F 18.0 °F 71% 30.28 in 10.0 mi NNW 11.5 mph - N/A   Overcast
10:53 PM 26.1 °F 15.6 °F 17.1 °F 69% 30.29 in 10.0 mi North 11.5 mph - N/A   Overcast
11:53 PM 25.0 °F 15.5 °F 15.1 °F 66% 30.31 in 10.0 mi NNW 9.2 mph - N/A   Overcast